This demonstration page uses our WeatherBlox Daily Observations layout. Learn more.

Left ArrowRight Arrow

Hourly Observations for August 19, 2022

Temp ( °F °C ) Dew Point ( °F °C ) Humidity (%) Winds ( mph kmh ) Pressure ( in mb ) Visibility ( mi km ) Precip ( " mm )
12:53 am 00:53 Mostly Cloudy 72 22.2 70 21.1 93 93 Calm 29.96 1015 10 16 0.00 0.00
1:53 am 01:53 Mostly Cloudy 72 22.2 69 20.6 91 91 NNW 3 6 29.96 1015 10 16 0.00 0.00
2:53 am 02:53 Cloudy 72 22.2 69 20.6 91 91 Calm 29.96 1015 10 16 0.00 0.00
3:53 am 03:53 Cloudy 72 22.2 69 20.6 91 91 Calm 29.97 1015 10 16 0.00 0.00
4:43 am 04:43 Mostly Cloudy 72 22.2 69 20.6 91 91 Calm 29.97 1015 10 16 0.00 0.00
4:53 am 04:53 Mostly Cloudy 72 22.2 69 20.6 91 91 Calm 29.96 1015 10 16 0.00 0.00
5:53 am 05:53 Mostly Cloudy 72 22.2 69 20.6 91 91 Calm 29.97 1015 10 16 0.00 0.00
6:08 am 06:08 Partly Cloudy 72 22.2 68 20 87 87 NNE 3 6 29.97 1015 10 16 0.00 0.00
6:53 am 06:53 Clear 71 21.7 69 20.6 93 93 Calm 29.97 1015 10 16 0.00 0.00
7:53 am 07:53 Cloudy 72 22.2 70 21.1 93 93 Calm 29.98 1015 10 16 0.00 0.00
8:35 am 08:35 Cloudy 73 22.8 70 21.1 90 90 E 3 6 29.99 1016 10 16 0.00 0.00
8:48 am 08:48 Cloudy 73 23 70 21 89 89 Calm 29.99 1016 10 16 0.00 0.00
8:53 am 08:53 Cloudy 73 22.8 70 21.1 90 90 NE 3 6 29.99 1016 10 16 0.00 0.00
9:53 am 09:53 Cloudy 75 23.9 71 21.7 88 88 NE 6 9 30.01 1016 10 16 0.00 0.00
10:53 am 10:53 Cloudy 75 23.9 71 21.7 88 88 NE 6 9 30.01 1016 10 16 0.00 0.00
11:53 am 11:53 Cloudy 76 24.4 71 21.7 85 85 E 6 9 30.03 1017 10 16 0.00 0.00
12:51 pm 12:51 Cloudy with Light Rain 75 24 73 23 94 94 ESE 5 7 30.02 1016 10 16 0.02 0.51
12:53 pm 12:53 Cloudy with Light Rain 75 23.9 73 22.8 94 94 VRB 3 6 30.02 1017 10 16 0.02 0.51
1:34 pm 13:34 Cloudy with Light Rain 75 23.9 72 22.2 90 90 E 6 9 30.01 1016 9 14 0.01 0.13
1:53 pm 13:53 Cloudy 76 24.4 72 22.2 88 88 E 3 6 30.02 1017 10 16 0.01 0.13
2:01 pm 14:01 Cloudy 76 24.4 72 22.2 88 88 SE 5 7 30.01 1016 10 16 0.00 0.00
2:53 pm 14:53 Mostly Cloudy 78 25.6 71 21.7 79 79 E 6 9 30.01 1016 10 16 0.00 0.00
3:00 pm 15:00 Partly Cloudy 78 25.6 71 21.7 79 79 ESE 8 13 29.99 1016 10 16 0.00 0.00
3:08 pm 15:08 Mostly Cloudy 78 25.6 71 21.7 79 79 ESE 7 11 29.99 1016 10 16 0.00 0.00
3:53 pm 15:53 Mostly Cloudy 78 25.6 69 20.6 74 74 E 8 13 30.00 1016 10 16 0.00 0.00
5:00 pm 17:00 Cloudy 76 24.4 72 22.2 88 88 VRB 6 9 29.99 1015 10 16 0.00 0.00
5:53 pm 17:53 Cloudy 77 25 70 21.1 79 79 SE 7 11 29.99 1016 10 16 0.00 0.00
6:00 pm 18:00 Mostly Cloudy 77 25 69 20.6 77 77 ESE 7 11 29.98 1015 10 16 0.00 0.00
6:53 pm 18:53 Mostly Sunny 77 25 70 21.1 79 79 SSE 7 11 29.99 1016 10 16 0.00 0.00
7:19 pm 19:19 Partly Cloudy 76 24.4 70 21.1 82 82 SSE 6 9 30.01 1016 10 16 0.00 0.00
7:53 pm 19:53 Mostly Cloudy 75 23.9 70 21.1 84 84 VRB 3 6 30.01 1016 10 16 0.00 0.00
8:53 pm 20:53 Mostly Cloudy 75 23.9 70 21.1 84 84 SE 5 7 30.01 1016 10 16 0.00 0.00
9:30 pm 21:30 Cloudy with Rain 74 23.3 71 21.7 91 91 Calm 30.03 1017 4 6 0.04 1.02
9:53 pm 21:53 Cloudy with Rain 74 23.3 72 22.2 94 94 NNE 3 6 30.04 1017 6 10 0.10 2.54
10:04 pm 22:04 Cloudy with Light Rain 74 23.3 72 22.2 94 94 E 5 7 30.04 1017 8 13 0.01 0.13
10:36 pm 22:36 Mostly Cloudy with Light Rain 74 23.3 72 22.2 94 94 E 5 7 30.03 1017 10 16 0.02 0.51
10:53 pm 22:53 Mostly Clear with Light Rain 74 23.3 72 22.2 94 94 ENE 3 6 30.05 1018 10 16 0.02 0.51
11:16 pm 23:16 Mostly Cloudy 74 23.3 72 22.2 94 94 Calm 30.06 1018 10 16 0.01 0.13
11:53 pm 23:53 Mostly Cloudy 74 23.3 72 22.2 94 94 SE 5 7 30.07 1018 10 16 0.01 0.13

Powered by AerisWeather